Pompano Beach, FL

8:11 PM EDT on May 24, 2017 (GMT -0400)
Pompano Beach

Weather History for KPMP - August, 2013

Change the Weather History Date:

Saturday, August 10, 2013

  Actual Average Record
Temperature  
Mean Temperature 85 °F -  
Max Temperature 90 °F 91 °F 98 °F (1987)
Min Temperature 81 °F 75 °F 68 °F (1977)
Cooling Degree Days 20    
Growing Degree Days 35 (Base 50)    
Moisture  
Dew Point 75 °F    
Average Humidity 74    
Maximum Humidity 82    
Minimum Humidity 65    
Precipitation  
Precipitation 0.00 in - - ()
Sea Level Pressure  
Sea Level Pressure 30.08 in    
Wind  
Wind Speed 10 mph (ESE)    
Max Wind Speed 16 mph    
Max Gust Speed 22 mph    
Visibility 10 miles    
Events      
Averages and records for this station are not official NWS values.
T = Trace of Precipitation, MM = Missing Value Source: NWS Daily Summary

Daily Weather History Graph

Daily Weather History Graph

Search for Another Location

Airport or City:

Trip Planner

Search our weather history database for the weather conditions in past years. The results will help you decide how hot, cold, wet, or windy it might be!

Date:

Astronomy

Aug. 10, 2013 Rise Set
Actual Time 6:50 AM EDT 8:00 PM EDT
Civil Twilight 6:26 AM EDT 8:24 PM EDT
Nautical Twilight 5:57 AM EDT 8:53 PM EDT
Astronomical Twilight 5:27 AM EDT 9:23 PM EDT
Moon 10:07 AM EDT (8/10) 10:11 PM EDT (8/10)
Length of Visible Light 13h 58m
Length of Day
13h 09m
Waxing Crescent, 14% of the Moon is Illuminated
Aug 10
Waxing Crescent
Aug 14
First Quarter
Aug 20
Full
Aug 28
Last Quarter
Sep 5
New

Hourly Weather History & Observations

Time (EDT) Temp. Heat Index Dew Point Humidity Pressure Visibility Wind Dir Wind Speed Gust Speed Precip Events Conditions
12:15 AM 82.4 °F 89.5 °F 75.2 °F 79% 30.07 in 10.0 mi ENE 8.1 mph - N/A   Mostly Cloudy
12:38 AM 82.4 °F 89.5 °F 75.2 °F 79% 30.07 in 10.0 mi East 8.1 mph - N/A   Scattered Clouds
12:53 AM 81.0 °F 86.2 °F 73.9 °F 79% 30.07 in 10.0 mi East 9.2 mph - N/A   Partly Cloudy
1:53 AM 82.0 °F 88.6 °F 75.0 °F 79% 30.07 in 10.0 mi East 9.2 mph - N/A   Scattered Clouds
2:53 AM 82.0 °F 88.6 °F 75.0 °F 79% 30.06 in 10.0 mi ESE 10.4 mph - N/A   Scattered Clouds
3:53 AM 82.0 °F 88.6 °F 75.0 °F 79% 30.05 in 10.0 mi East 10.4 mph - N/A   Scattered Clouds
4:44 AM 82.4 °F 89.5 °F 75.2 °F 79% 30.05 in 10.0 mi ESE 8.1 mph - N/A   Mostly Cloudy
4:53 AM 82.0 °F 88.6 °F 75.0 °F 79% 30.06 in 10.0 mi ESE 10.4 mph - N/A   Mostly Cloudy
5:14 AM 82.4 °F 89.5 °F 75.2 °F 79% 30.05 in 10.0 mi ESE 11.5 mph - N/A   Scattered Clouds
5:27 AM 82.4 °F 89.5 °F 75.2 °F 79% 30.05 in 10.0 mi ESE 8.1 mph - N/A   Mostly Cloudy
5:34 AM 82.4 °F 89.5 °F 75.2 °F 79% 30.06 in 10.0 mi ESE 10.4 mph - N/A   Scattered Clouds
5:43 AM 82.4 °F 89.5 °F 75.2 °F 79% 30.06 in 10.0 mi ESE 9.2 mph 17.3 mph N/A   Mostly Cloudy
5:53 AM 82.0 °F 89.4 °F 75.9 °F 82% 30.06 in 10.0 mi ESE 8.1 mph - N/A   Mostly Cloudy
6:00 AM 82.4 °F 89.5 °F 75.2 °F 79% 30.05 in 10.0 mi ESE 11.5 mph 19.6 mph N/A   Mostly Cloudy
6:50 AM 82.4 °F 89.5 °F 75.2 °F 79% 30.06 in 10.0 mi ESE 12.7 mph - N/A   Mostly Cloudy
6:53 AM 82.9 °F 90.2 °F 75.0 °F 77% 30.06 in 10.0 mi ESE 16.1 mph 21.9 mph N/A   Mostly Cloudy
7:53 AM 82.9 °F 90.2 °F 75.0 °F 77% 30.07 in 10.0 mi ESE 10.4 mph - N/A   Partly Cloudy
8:53 AM 84.9 °F 92.1 °F 73.9 °F 69% 30.10 in 10.0 mi ESE 12.7 mph 21.9 mph N/A   Scattered Clouds
9:53 AM 86.0 °F 95.1 °F 75.0 °F 70% 30.11 in 9.0 mi SE 15.0 mph 20.7 mph N/A   Scattered Clouds
10:53 AM 88.0 °F 97.5 °F 75.0 °F 65% 30.13 in 10.0 mi ESE 13.8 mph - N/A   Scattered Clouds
11:53 AM 88.0 °F 98.5 °F 75.9 °F 67% 30.13 in 10.0 mi ESE 11.5 mph - N/A   Partly Cloudy
12:53 PM 89.1 °F 100.2 °F 75.9 °F 65% 30.13 in 10.0 mi SE 13.8 mph - N/A   Scattered Clouds
1:53 PM 89.1 °F 100.2 °F 75.9 °F 65% 30.12 in 10.0 mi ESE 11.5 mph - N/A   Mostly Cloudy
2:53 PM 88.0 °F 97.5 °F 75.0 °F 65% 30.10 in 10.0 mi SE 12.7 mph - N/A   Scattered Clouds
3:53 PM 88.0 °F 98.5 °F 75.9 °F 67% 30.08 in 10.0 mi ESE 13.8 mph - N/A   Partly Cloudy
4:53 PM 88.0 °F 97.5 °F 75.0 °F 65% 30.08 in 10.0 mi ESE 13.8 mph 19.6 mph N/A   Partly Cloudy
5:53 PM 87.1 °F 96.3 °F 75.0 °F 67% 30.07 in 10.0 mi East 12.7 mph - N/A   Partly Cloudy
6:53 PM 86.0 °F 95.1 °F 75.0 °F 70% 30.08 in 10.0 mi East 11.5 mph - N/A   Partly Cloudy
7:53 PM 84.9 °F 94.1 °F 75.9 °F 74% 30.09 in 10.0 mi ESE 11.5 mph - N/A   Scattered Clouds
8:53 PM 84.0 °F 92.6 °F 75.9 °F 76% 30.09 in 10.0 mi East 11.5 mph - N/A   Partly Cloudy
9:53 PM 84.0 °F 92.6 °F 75.9 °F 76% 30.10 in 10.0 mi East 12.7 mph - N/A   Partly Cloudy
10:53 PM 84.0 °F 91.2 °F 73.9 °F 72% 30.11 in 10.0 mi East 11.5 mph - N/A   Clear
11:53 PM 84.0 °F 91.2 °F 73.9 °F 72% 30.11 in 10.0 mi East 12.7 mph - N/A   Clear